Free Severe Weather Alerts by Email and Text Message   

 
Follow iAlert.com on twitter @ialertcom
Search For Active Alerts in Your Area  
  Hi Guest:  [ Sign-up / Services ] [ Login ]

Current weather by "City, St" or "zip code"  

 

Advertise Here

Hazardous Weather Conditions

No active alerts for CHICAGO, ILLINOIS

Current Conditions: CHICAGO, ILLINOIS

Fair


83.0 F

Last Updated on Aug 20 2017, 11:52 am CDT
Humidity: 55%
Wind Speed: S 5.8 mph
Barometer 30.05 in
Dewpoint: 64.9 F
Visibility: 10.00 mi
Precip: --
Heat Index: 85 F
Wind Chill: NA
Current conditions at:

Chicago / Wheeling, Pal-Waukee Airport, IL (KPWK)

Lat: 42.12 Lon: -87.904

Local Radar Image active severe weather and emergency alerts image image weather storm and storm spotter reports image weather observation monitoring service image
Local
Radar
Active
Alerts
Storm Reports Weather
Monitoring

Weather Alert Notification Services


ialert severe weather and emergency alerts by text message and email ialert daily weather forecast by email and text message service ialert real-time weather-observation monitoring and alert notification service ialert storm report monitoring alert notification

Observation History for CHICAGO, ILLINOIS


Time Wind
(mph)
Vis
(mi)
Weather Precip (in) Temperature (F) Relative
Humidity
Wind
Chill
(°F)
Heat
Index
(°F)
Pressure
Air Dwpt altimeter
(in)
sea level
(mb)
11:52 am CDT S 5.8 10.00 Fair -- 83.0 64.9 55% NA 85 30.05 1017.2
10:52 am CDT S 5.8 10.00 Fair -- 80.0 64.9 60% NA 82 30.06 1017.6
9:52 am CDT S 8.1 10.00 Fair -- 78.0 64.0 62% NA NA 30.07 1017.6
8:52 am CDT S 5.8 10.00 Fair -- 73.0 64.0 74% NA NA 30.06 1017.5
7:52 am CDT SE 4.6 10.00 Fair -- 68.0 63.0 84% NA NA 30.04 1017.0
6:52 am CDT N 0.0 10.00 Fair -- 63.0 60.1 90% NA NA 30.04 1017.0
5:52 am CDT N 0.0 10.00 Fair -- 62.0 60.1 93% NA NA 30.04 1017.0
4:52 am CDT N 0.0 10.00 Fair -- 62.0 60.1 93% NA NA 30.03 1016.4
3:52 am CDT N 0.0 10.00 Fair -- 63.0 60.1 90% NA NA 30.01 1015.9
2:52 am CDT N 0.0 10.00 Fair -- 63.0 61.0 93% NA NA 30.02 1016.0
1:52 am CDT N 0.0 10.00 Fair -- 64.0 60.1 87% NA NA 30.02 1016.0
12:52 am CDT N 0.0 10.00 Fair -- 64.0 60.1 87% NA NA 30.02 1016.1
11:52 pm CDT N 0.0 10.00 Fair -- 66.0 60.1 81% NA NA 30.01 1016.0
10:52 pm CDT N 0.0 10.00 Fair -- 67.0 60.1 79% NA NA 30.00 1015.4
9:52 pm CDT N 0.0 10.00 Fair -- 68.0 60.1 76% NA NA 29.99 1015.1
8:52 pm CDT N 0.0 10.00 Fair -- 71.0 59.0 66% NA NA 29.98 1014.9
7:52 pm CDT SE 4.6 10.00 Fair -- 74.0 57.9 57% NA NA 29.97 1014.3
6:52 pm CDT SE 5.8 10.00 Fair -- 77.0 60.1 56% NA NA 29.96 1014.2
5:52 pm CDT E 8.1 10.00 Fair -- 79.0 59.0 50% NA NA 29.96 1014.3
4:52 pm CDT E 8.1 10.00 Fair -- 80.0 57.9 47% NA 81 29.96 1014.2
3:52 pm CDT 4.6 10.00 Fair -- 81.0 57.9 45% NA 81 29.96 1014.2
2:52 pm CDT NW 3.5 10.00 Fair -- 82.0 54.0 38% NA 81 29.96 1014.1
1:52 pm CDT 4.6 10.00 Fair -- 82.0 57.0 43% NA 82 29.97 1014.5
12:52 pm CDT W 4.6 10.00 Fair -- 80.0 57.9 47% NA 81 29.97 1014.6

Regional Weather Observation:


Chicago, Chicago-OHare International Airport, IL (KORD)

Mostly Cloudy
84.0 F

Chicago/Waukegan Regional Airport, IL (KUGN)

Fair
79.0 F

Chicago, Chicago Midway Airport, IL (KMDW)

Mostly Cloudy
84.0 F

Kenosha, Kenosha Regional Airport, WI (KENW)

Fair
80.0 F

Chicago / West Chicago, Dupage Airport, IL (KDPA)

Fair
83.0 F

Racine, Batten International Airport, WI (KRAC)

A Few Clouds
78.0 F

Advertise Here


Advertise Here